Regional Weather Roundup
Issued by NWS

Home | Current Version | Previous Version | Text Only | Print | Product List | Glossary On
Versions: 1 2 3 4 5 6 7 8 9 10 11 12 13 14 15 16 17 18 19 20 21 22 23 24 25 26 27 28 29 30 31 32 33 34 35 36 37 38 39 40 41 42 43 44 45 46 47 48 49 50
000
ASUS43 KTOP 280908
RWRKS

WEATHER ROUNDUP FOR KANSAS
NATIONAL WEATHER SERVICE GOODLAND KS
400 AM CDT TUE MAR 28 2017

NOTE:  "FAIR" INDICATES FEW OR NO CLOUDS BELOW 12,000 FEET WITH NO
SIGNIFICANT WEATHER AND/OR OBSTRUCTIONS TO VISIBILITY.

KSZ001>006-013>018-027>032-041>047-281000-
NORTHWEST KANSAS

CITY           SKY/WX    TMP DP  RH WIND       PRES   REMARKS
GOODLAND       CLOUDY    45  42  89 S13       29.90S
HAYS           FOG       41  41 100 E6        29.96S VSB 1/4
HILL CITY      CLOUDY    44  44 100 E3        29.96F FOG
RUSSELL        PTCLDY    39  38  96 E8        29.94F FOG
$$

KSZ061>065-074>080-084>089-281000-
SOUTHWEST KANSAS

CITY           SKY/WX    TMP DP  RH WIND       PRES   REMARKS
DODGE CITY     CLOUDY    45  44  97 SE10      29.95S FOG
ELKHART          N/A     47  36  66 SE18        N/A
GARDEN CITY    CLOUDY    47  45  93 SE12      29.92S
GREAT BEND     CLOUDY    40  39  97 S7        29.97R FOG
LIBERAL        CLOUDY    50  39  66 SE12      29.91S
PRATT          MOCLDY    43  41  93 SE7       29.97S
$$

KSZ066>073-081>083-090>101-281000-
SOUTHEAST KANSAS

CITY           SKY/WX    TMP DP  RH WIND       PRES   REMARKS
CHANUTE        CLOUDY    51  46  83 NE6       29.99S
COFFEYVILLE    CLOUDY    53  48  83 NE5       29.99S
HUTCHINSON     CLOUDY    49  45  86 SE6       29.97S
MEDICINE LODGE   N/A     45  43  93 SE3       29.97R
NEWTON         CLOUDY    48  46  93 E7        29.98F
PARSONS        CLOUDY    52  48  86 CALM      30.00S
WICHITA INTL   CLOUDY    51  45  79 E9        29.97F
WICHITA JABRA  CLOUDY    50  45  83 E7        29.97F
WICHITA MCCONL CLOUDY    51  44  79 SE6       29.97F
WINFIELD       CLOUDY    51  45  79 E8        29.99S
$$

KSZ007>012-019>026-033>040-048>060-102>105-281000-
NORTHEAST KANSAS

CITY           SKY/WX    TMP DP  RH WIND       PRES   REMARKS
CONCORDIA      CLOUDY    43  43 100 E5        29.99F
EMPORIA        CLOUDY    50  48  93 NE6       30.00R
LAWRENCE       CLOUDY    50  45  83 NE7       30.01F
MANHATTAN      CLOUDY    50  45  83 E9        30.00S
MARYSVILLE     CLOUDY    37  37 100 CALM      30.02S
OLATHE IND     CLOUDY    48  45  89 N8        30.01F
OLATHE EXE     CLOUDY    48  48 100 NE5       30.01S FOG
SALINA         CLOUDY    51  46  83 E5        29.98F
TOPEKA BILLARD CLOUDY    50  46  86 NE5       30.00F
TOPEKA FORBES  CLOUDY    51  45  79 NE5       30.00F
$$




USA.gov is the U.S. government's official web portal to all federal, state and local government web resources and services.